Flag for Canada Weather past 2 weeks in St. Albert, Alberta, Canada

Now
61 °F

Passing clouds.


Feels Like: 61 °F
Forecast: 41 / 71 °F
Wind: 3 mph from West

Location: Edmonton Municipal

Current Time: Sep 14, 2014 at 8:42:12 PM

Latest Report: Sep 14, 2014 at 8:00 PM


Visibility: 9 mi

Pressure: 30.05 "Hg

Humidity: 52%

Dew point: 43 °F

Location of St. AlbertLocation

Historic Weather in St. Albert — Graph

°F

St. Albert temperature yesterday

Maximum temperature yesterday: 57 °F (at 2:00 PM)
Minimum temperature yesterday: 36 °F (at 6:00 AM)
Average temperature yesterday: 48 °F

Past Weeks' High & Low Weather Summary

 TemperatureHumidityPressure
High77 °F (Sep 6, 3:00 PM)100% (Sep 3, 2:00 AM)30.66 "Hg (Sep 3, 2:00 AM)
Low28 °F (Sep 11, 4:00 AM)29% (Sep 11, 5:00 PM)29.66 "Hg (Aug 30, 7:00 PM)
Average50 °F71%30.07 "Hg
* Reported Aug 30 7:00 PM — Sep 14 7:00 PM, St. Albert, Weather by CustomWeather, © 2014

Note: Actual official high and low records may vary slightly from our data, if they occured in-between our weather recording intervals... More about our weather records

Advertising

St. Albert weather history for previous 24 hours

 ConditionsComfort  
Time TempWeatherWind HumidityBarometerVisibility
7:00 PM
Sep 14
63 °FPassing clouds.8 mph49%30.05 "Hg9 mi
6:00 PM64 °FPartly sunny.7 mph46%30.05 "Hg9 mi
5:00 PM66 °FPartly sunny.12 mph43%30.05 "Hg9 mi
4:00 PM66 °FPassing clouds.9 mph43%30.05 "Hg9 mi
3:00 PM66 °FPartly sunny.12 mph43%30.04 "Hg9 mi
2:00 PM64 °FSunny.7 mph46%30.06 "Hg9 mi
1:00 PM63 °FSunny.5 mph49%30.07 "Hg9 mi
12:00 PM59 °FSunny.6 mph59%30.07 "Hg9 mi
11:00 AM55 °FSunny.2 mph67%30.09 "Hg9 mi
10:00 AM50 °FSunny.2 mph71%30.08 "Hg9 mi
9:00 AM45 °FSunny.3 mph81%30.09 "Hg9 mi
8:00 AM39 °FClear.3 mph87%30.08 "Hg9 mi
7:00 AM39 °FClear.3 mph87%30.07 "Hg9 mi
6:00 AM41 °FClear.3 mph81%30.06 "Hg9 mi
5:00 AM41 °FClear.2 mph81%30.06 "Hg9 mi
4:00 AM41 °FClear.2 mph81%30.06 "Hg9 mi
3:00 AM43 °FPassing clouds.No wind76%30.06 "Hg9 mi
2:00 AM43 °FClear.5 mph76%30.06 "Hg9 mi
1:00 AM43 °FClear.No wind71%30.07 "Hg9 mi
12:00 AM45 °FClear.2 mph71%30.07 "Hg9 mi
11:00 PM
Sep 13
46 °FClear.5 mph66%30.07 "Hg9 mi
10:00 PM48 °FClear.3 mph58%30.08 "Hg9 mi
9:00 PM50 °FClear.2 mph54%30.08 "Hg9 mi
8:00 PM52 °FSunny.5 mph50%30.09 "Hg9 mi
Weather by CustomWeather, © 2014

See weather overviewHow to use our weather pages